owner,sensor,date,latitude,longitude,vertical_datum,sea_water_temperature,qcFlag 
NERRS,ioos:station:NOAA.NERRS:wkbfrwq:1,2019-03-01T03:45:00Z,30.4162,-87.8228,0.0,19.9,11111222 
NERRS,ioos:station:NOAA.NERRS:wkbfrwq:1,2019-03-01T04:45:00Z,30.4162,-87.8228,0.0,19.7,11111222 
NERRS,ioos:station:NOAA.NERRS:wkbfrwq:1,2019-03-01T05:45:00Z,30.4162,-87.8228,0.0,19.7,11111222 
NERRS,ioos:station:NOAA.NERRS:wkbfrwq:1,2019-03-01T06:45:00Z,30.4162,-87.8228,0.0,19.6,11111222 
NERRS,ioos:station:NOAA.NERRS:wkbfrwq:1,2019-03-01T07:45:00Z,30.4162,-87.8228,0.0,19.6,11111222 
NERRS,ioos:station:NOAA.NERRS:wkbfrwq:1,2019-03-01T08:45:00Z,30.4162,-87.8228,0.0,19.6,11111222 
NERRS,ioos:station:NOAA.NERRS:wkbfrwq:1,2019-03-01T09:45:00Z,30.4162,-87.8228,0.0,19.6,11111222 
NERRS,ioos:station:NOAA.NERRS:wkbfrwq:1,2019-03-01T10:45:00Z,30.4162,-87.8228,0.0,19.6,11111222 
NERRS,ioos:station:NOAA.NERRS:wkbfrwq:1,2019-03-01T11:45:00Z,30.4162,-87.8228,0.0,19.5,11111222 
NERRS,ioos:station:NOAA.NERRS:wkbfrwq:1,2019-03-01T12:45:00Z,30.4162,-87.8228,0.0,19.5,11111222 
NERRS,ioos:station:NOAA.NERRS:wkbfrwq:1,2019-03-01T13:45:00Z,30.4162,-87.8228,0.0,19.4,11111222 
NERRS,ioos:station:NOAA.NERRS:wkbfrwq:1,2019-03-01T14:45:00Z,30.4162,-87.8228,0.0,19.5,11111222 
NERRS,ioos:station:NOAA.NERRS:wkbfrwq:1,2019-03-01T15:45:00Z,30.4162,-87.8228,0.0,19.6,11111222 
NERRS,ioos:station:NOAA.NERRS:wkbfrwq:1,2019-03-01T16:45:00Z,30.4162,-87.8228,0.0,19.7,11111222 
NERRS,ioos:station:NOAA.NERRS:wkbfrwq:1,2019-03-01T17:45:00Z,30.4162,-87.8228,0.0,19.9,11111222 
NERRS,ioos:station:NOAA.NERRS:wkbfrwq:1,2019-03-01T18:45:00Z,30.4162,-87.8228,0.0,20.2,11111222 
NERRS,ioos:station:NOAA.NERRS:wkbfrwq:1,2019-03-01T19:45:00Z,30.4162,-87.8228,0.0,20.0,11111222 
NERRS,ioos:station:NOAA.NERRS:wkbfrwq:1,2019-03-01T20:45:00Z,30.4162,-87.8228,0.0,20.5,11111222 
NERRS,ioos:station:NOAA.NERRS:wkbfrwq:1,2019-03-01T21:45:00Z,30.4162,-87.8228,0.0,20.6,11111222 
NERRS,ioos:station:NOAA.NERRS:wkbfrwq:1,2019-03-01T22:45:00Z,30.4162,-87.8228,0.0,20.6,11111222 
NERRS,ioos:station:NOAA.NERRS:wkbfrwq:1,2019-03-01T23:45:00Z,30.4162,-87.8228,0.0,20.5,11111222 
NERRS,ioos:station:NOAA.NERRS:wkbfrwq:1,2019-03-02T00:45:00Z,30.4162,-87.8228,0.0,20.6,11111222 
NERRS,ioos:station:NOAA.NERRS:wkbfrwq:1,2019-03-02T01:45:00Z,30.4162,-87.8228,0.0,20.5,11111222 
NERRS,ioos:station:NOAA.NERRS:wkbfrwq:1,2019-03-02T02:45:00Z,30.4162,-87.8228,0.0,20.5,11111222 
NERRS,ioos:station:NOAA.NERRS:wkbfrwq:1,2019-03-02T03:45:00Z,30.4162,-87.8228,0.0,20.2,11111222 
NERRS,ioos:station:NOAA.NERRS:wkbfrwq:1,2019-03-02T05:45:00Z,30.4162,-87.8228,0.0,20.1,11111222 
NERRS,ioos:station:NOAA.NERRS:wkbfrwq:1,2019-03-02T07:45:00Z,30.4162,-87.8228,0.0,19.9,11111222 
NERRS,ioos:station:NOAA.NERRS:wkbfrwq:1,2019-03-02T09:45:00Z,30.4162,-87.8228,0.0,19.8,11111222 
NERRS,ioos:station:NOAA.NERRS:wkbfrwq:1,2019-03-02T10:45:00Z,30.4162,-87.8228,0.0,19.9,11111222 
NERRS,ioos:station:NOAA.NERRS:wkbfrwq:1,2019-03-02T11:45:00Z,30.4162,-87.8228,0.0,19.9,11111222 
NERRS,ioos:station:NOAA.NERRS:wkbfrwq:1,2019-03-02T12:45:00Z,30.4162,-87.8228,0.0,19.9,11111222 
NERRS,ioos:station:NOAA.NERRS:wkbfrwq:1,2019-03-02T13:45:00Z,30.4162,-87.8228,0.0,19.8,11111222 
NERRS,ioos:station:NOAA.NERRS:wkbfrwq:1,2019-03-02T14:45:00Z,30.4162,-87.8228,0.0,19.8,11111222 
NERRS,ioos:station:NOAA.NERRS:wkbfrwq:1,2019-03-02T15:45:00Z,30.4162,-87.8228,0.0,19.8,11111222 
NERRS,ioos:station:NOAA.NERRS:wkbfrwq:1,2019-03-02T16:45:00Z,30.4162,-87.8228,0.0,20.1,11111222 
NERRS,ioos:station:NOAA.NERRS:wkbfrwq:1,2019-03-02T17:45:00Z,30.4162,-87.8228,0.0,20.6,11111222 
NERRS,ioos:station:NOAA.NERRS:wkbfrwq:1,2019-03-02T18:45:00Z,30.4162,-87.8228,0.0,20.7,11111222 
NERRS,ioos:station:NOAA.NERRS:wkbfrwq:1,2019-03-02T19:45:00Z,30.4162,-87.8228,0.0,20.8,11111222 
NERRS,ioos:station:NOAA.NERRS:wkbfrwq:1,2019-03-02T20:45:00Z,30.4162,-87.8228,0.0,21.1,11111222 
NERRS,ioos:station:NOAA.NERRS:wkbfrwq:1,2019-03-02T21:45:00Z,30.4162,-87.8228,0.0,21.4,11111222 
NERRS,ioos:station:NOAA.NERRS:wkbfrwq:1,2019-03-02T22:45:00Z,30.4162,-87.8228,0.0,21.6,11111222 
NERRS,ioos:station:NOAA.NERRS:wkbfrwq:1,2019-03-02T23:45:00Z,30.4162,-87.8228,0.0,21.7,11111222 
NERRS,ioos:station:NOAA.NERRS:wkbfrwq:1,2019-03-03T00:15:00Z,30.4162,-87.8228,0.0,21.6,11111222 
NERRS,ioos:station:NOAA.NERRS:wkbfrwq:1,2019-03-03T01:45:00Z,30.4162,-87.8228,0.0,21.2,11111222 
NERRS,ioos:station:NOAA.NERRS:wkbfrwq:1,2019-03-03T02:45:00Z,30.4162,-87.8228,0.0,21.7,11111222 
NERRS,ioos:station:NOAA.NERRS:wkbfrwq:1,2019-03-03T03:45:00Z,30.4162,-87.8228,0.0,21.2,11111222 
NERRS,ioos:station:NOAA.NERRS:wkbfrwq:1,2019-03-03T04:45:00Z,30.4162,-87.8228,0.0,20.9,11111222 
NERRS,ioos:station:NOAA.NERRS:wkbfrwq:1,2019-03-03T05:45:00Z,30.4162,-87.8228,0.0,20.6,11111222 
NERRS,ioos:station:NOAA.NERRS:wkbfrwq:1,2019-03-03T06:45:00Z,30.4162,-87.8228,0.0,20.5,11111222 
NERRS,ioos:station:NOAA.NERRS:wkbfrwq:1,2019-03-03T07:45:00Z,30.4162,-87.8228,0.0,20.5,11111222 
NERRS,ioos:station:NOAA.NERRS:wkbfrwq:1,2019-03-03T08:45:00Z,30.4162,-87.8228,0.0,20.4,11111222 
NERRS,ioos:station:NOAA.NERRS:wkbfrwq:1,2019-03-03T10:45:00Z,30.4162,-87.8228,0.0,20.2,11111222 
NERRS,ioos:station:NOAA.NERRS:wkbfrwq:1,2019-03-03T11:45:00Z,30.4162,-87.8228,0.0,20.2,11111222 
NERRS,ioos:station:NOAA.NERRS:wkbfrwq:1,2019-03-03T12:45:00Z,30.4162,-87.8228,0.0,20.2,11111222 
NERRS,ioos:station:NOAA.NERRS:wkbfrwq:1,2019-03-03T13:45:00Z,30.4162,-87.8228,0.0,20.2,11111222 
NERRS,ioos:station:NOAA.NERRS:wkbfrwq:1,2019-03-03T14:45:00Z,30.4162,-87.8228,0.0,20.9,11111222 
NERRS,ioos:station:NOAA.NERRS:wkbfrwq:1,2019-03-03T15:45:00Z,30.4162,-87.8228,0.0,20.7,11111222 
NERRS,ioos:station:NOAA.NERRS:wkbfrwq:1,2019-03-03T16:45:00Z,30.4162,-87.8228,0.0,21.0,11111222 
NERRS,ioos:station:NOAA.NERRS:wkbfrwq:1,2019-03-03T17:45:00Z,30.4162,-87.8228,0.0,21.4,11111222 
NERRS,ioos:station:NOAA.NERRS:wkbfrwq:1,2019-03-03T18:45:00Z,30.4162,-87.8228,0.0,21.4,11111222 
NERRS,ioos:station:NOAA.NERRS:wkbfrwq:1,2019-03-03T19:45:00Z,30.4162,-87.8228,0.0,21.7,11111222 
NERRS,ioos:station:NOAA.NERRS:wkbfrwq:1,2019-03-03T20:45:00Z,30.4162,-87.8228,0.0,21.8,11111222 
NERRS,ioos:station:NOAA.NERRS:wkbfrwq:1,2019-03-03T21:45:00Z,30.4162,-87.8228,0.0,21.9,11111222 
NERRS,ioos:station:NOAA.NERRS:wkbfrwq:1,2019-03-03T22:45:00Z,30.4162,-87.8228,0.0,21.7,11111222 
NERRS,ioos:station:NOAA.NERRS:wkbfrwq:1,2019-03-04T00:45:00Z,30.4162,-87.8228,0.0,21.3,11111222 
NERRS,ioos:station:NOAA.NERRS:wkbfrwq:1,2019-03-04T01:45:00Z,30.4162,-87.8228,0.0,20.7,11111222 
NERRS,ioos:station:NOAA.NERRS:wkbfrwq:1,2019-03-04T02:45:00Z,30.4162,-87.8228,0.0,20.8,11111222 
NERRS,ioos:station:NOAA.NERRS:wkbfrwq:1,2019-03-04T04:45:00Z,30.4162,-87.8228,0.0,20.4,11111222 
NERRS,ioos:station:NOAA.NERRS:wkbfrwq:1,2019-03-04T05:45:00Z,30.4162,-87.8228,0.0,20.1,11111222 
NERRS,ioos:station:NOAA.NERRS:wkbfrwq:1,2019-03-04T06:45:00Z,30.4162,-87.8228,0.0,19.9,11111222 
NERRS,ioos:station:NOAA.NERRS:wkbfrwq:1,2019-03-04T07:45:00Z,30.4162,-87.8228,0.0,19.7,11111222 
NERRS,ioos:station:NOAA.NERRS:wkbfrwq:1,2019-03-04T09:45:00Z,30.4162,-87.8228,0.0,19.4,11111222 
NERRS,ioos:station:NOAA.NERRS:wkbfrwq:1,2019-03-04T10:45:00Z,30.4162,-87.8228,0.0,19.3,11111222 
NERRS,ioos:station:NOAA.NERRS:wkbfrwq:1,2019-03-04T11:45:00Z,30.4162,-87.8228,0.0,19.1,11111222 
NERRS,ioos:station:NOAA.NERRS:wkbfrwq:1,2019-03-04T12:45:00Z,30.4162,-87.8228,0.0,19.0,11111222 
NERRS,ioos:station:NOAA.NERRS:wkbfrwq:1,2019-03-04T13:45:00Z,30.4162,-87.8228,0.0,18.9,11111222 
NERRS,ioos:station:NOAA.NERRS:wkbfrwq:1,2019-03-04T14:45:00Z,30.4162,-87.8228,0.0,18.8,11111222 
NERRS,ioos:station:NOAA.NERRS:wkbfrwq:1,2019-03-04T15:45:00Z,30.4162,-87.8228,0.0,18.8,11111222 
NERRS,ioos:station:NOAA.NERRS:wkbfrwq:1,2019-03-04T16:45:00Z,30.4162,-87.8228,0.0,18.7,11111222 
NERRS,ioos:station:NOAA.NERRS:wkbfrwq:1,2019-03-04T17:45:00Z,30.4162,-87.8228,0.0,18.7,11111222 
NERRS,ioos:station:NOAA.NERRS:wkbfrwq:1,2019-03-04T19:45:00Z,30.4162,-87.8228,0.0,18.9,11111222 
NERRS,ioos:station:NOAA.NERRS:wkbfrwq:1,2019-03-04T20:45:00Z,30.4162,-87.8228,0.0,18.9,11111222 
NERRS,ioos:station:NOAA.NERRS:wkbfrwq:1,2019-03-04T21:45:00Z,30.4162,-87.8228,0.0,18.8,11111222 
NERRS,ioos:station:NOAA.NERRS:wkbfrwq:1,2019-03-04T22:45:00Z,30.4162,-87.8228,0.0,18.9,11111222 
NERRS,ioos:station:NOAA.NERRS:wkbfrwq:1,2019-03-04T23:45:00Z,30.4162,-87.8228,0.0,18.6,11111222 
NERRS,ioos:station:NOAA.NERRS:wkbfrwq:1,2019-03-05T00:45:00Z,30.4162,-87.8228,0.0,18.5,11111222 
NERRS,ioos:station:NOAA.NERRS:wkbfrwq:1,2019-03-05T01:45:00Z,30.4162,-87.8228,0.0,18.1,11111222 
NERRS,ioos:station:NOAA.NERRS:wkbfrwq:1,2019-03-05T02:45:00Z,30.4162,-87.8228,0.0,18.1,11111222 
NERRS,ioos:station:NOAA.NERRS:wkbfrwq:1,2019-03-05T04:45:00Z,30.4162,-87.8228,0.0,17.5,11111222 
NERRS,ioos:station:NOAA.NERRS:wkbfrwq:1,2019-03-05T05:45:00Z,30.4162,-87.8228,0.0,17.5,11111222 
NERRS,ioos:station:NOAA.NERRS:wkbfrwq:1,2019-03-05T06:45:00Z,30.4162,-87.8228,0.0,17.8,11111222 
NERRS,ioos:station:NOAA.NERRS:wkbfrwq:1,2019-03-05T07:45:00Z,30.4162,-87.8228,0.0,17.7,11111222 
NERRS,ioos:station:NOAA.NERRS:wkbfrwq:1,2019-03-05T08:45:00Z,30.4162,-87.8228,0.0,17.6,11111222 
NERRS,ioos:station:NOAA.NERRS:wkbfrwq:1,2019-03-05T09:45:00Z,30.4162,-87.8228,0.0,17.5,11111222 
NERRS,ioos:station:NOAA.NERRS:wkbfrwq:1,2019-03-05T10:45:00Z,30.4162,-87.8228,0.0,17.3,11111222 
NERRS,ioos:station:NOAA.NERRS:wkbfrwq:1,2019-03-05T11:45:00Z,30.4162,-87.8228,0.0,17.3,11111222 
NERRS,ioos:station:NOAA.NERRS:wkbfrwq:1,2019-03-05T12:45:00Z,30.4162,-87.8228,0.0,17.3,11111222 
NERRS,ioos:station:NOAA.NERRS:wkbfrwq:1,2019-03-05T13:45:00Z,30.4162,-87.8228,0.0,17.2,11111222 
NERRS,ioos:station:NOAA.NERRS:wkbfrwq:1,2019-03-05T14:45:00Z,30.4162,-87.8228,0.0,17.1,11111222 
NERRS,ioos:station:NOAA.NERRS:wkbfrwq:1,2019-03-05T15:45:00Z,30.4162,-87.8228,0.0,16.9,11111222 
NERRS,ioos:station:NOAA.NERRS:wkbfrwq:1,2019-03-05T16:45:00Z,30.4162,-87.8228,0.0,17.1,11111222 
NERRS,ioos:station:NOAA.NERRS:wkbfrwq:1,2019-03-05T17:45:00Z,30.4162,-87.8228,0.0,17.1,11111222 
NERRS,ioos:station:NOAA.NERRS:wkbfrwq:1,2019-03-05T18:45:00Z,30.4162,-87.8228,0.0,17.2,11111222 
NERRS,ioos:station:NOAA.NERRS:wkbfrwq:1,2019-03-05T19:45:00Z,30.4162,-87.8228,0.0,17.7,11111222 
NERRS,ioos:station:NOAA.NERRS:wkbfrwq:1,2019-03-05T20:45:00Z,30.4162,-87.8228,0.0,17.7,11111222 
NERRS,ioos:station:NOAA.NERRS:wkbfrwq:1,2019-03-05T22:45:00Z,30.4162,-87.8228,0.0,17.5,11111222 
NERRS,ioos:station:NOAA.NERRS:wkbfrwq:1,2019-03-05T23:45:00Z,30.4162,-87.8228,0.0,17.4,11111222 
NERRS,ioos:station:NOAA.NERRS:wkbfrwq:1,2019-03-06T01:45:00Z,30.4162,-87.8228,0.0,17.2,11111222 
NERRS,ioos:station:NOAA.NERRS:wkbfrwq:1,2019-03-06T02:45:00Z,30.4162,-87.8228,0.0,17.0,11111222 
NERRS,ioos:station:NOAA.NERRS:wkbfrwq:1,2019-03-06T04:45:00Z,30.4162,-87.8228,0.0,16.2,11111222 
NERRS,ioos:station:NOAA.NERRS:wkbfrwq:1,2019-03-06T06:45:00Z,30.4162,-87.8228,0.0,16.6,11111222 
NERRS,ioos:station:NOAA.NERRS:wkbfrwq:1,2019-03-06T07:45:00Z,30.4162,-87.8228,0.0,16.6,11111222 
NERRS,ioos:station:NOAA.NERRS:wkbfrwq:1,2019-03-06T08:45:00Z,30.4162,-87.8228,0.0,16.3,11111222 
NERRS,ioos:station:NOAA.NERRS:wkbfrwq:1,2019-03-06T09:45:00Z,30.4162,-87.8228,0.0,16.2,11111222 
NERRS,ioos:station:NOAA.NERRS:wkbfrwq:1,2019-03-06T10:45:00Z,30.4162,-87.8228,0.0,16.1,11111222 
NERRS,ioos:station:NOAA.NERRS:wkbfrwq:1,2019-03-06T11:45:00Z,30.4162,-87.8228,0.0,16.0,11111222 
NERRS,ioos:station:NOAA.NERRS:wkbfrwq:1,2019-03-06T12:45:00Z,30.4162,-87.8228,0.0,16.0,11111222 
NERRS,ioos:station:NOAA.NERRS:wkbfrwq:1,2019-03-06T13:45:00Z,30.4162,-87.8228,0.0,15.7,11111222 
NERRS,ioos:station:NOAA.NERRS:wkbfrwq:1,2019-03-06T14:45:00Z,30.4162,-87.8228,0.0,15.8,11111222 
NERRS,ioos:station:NOAA.NERRS:wkbfrwq:1,2019-03-06T15:45:00Z,30.4162,-87.8228,0.0,15.9,11111222 
NERRS,ioos:station:NOAA.NERRS:wkbfrwq:1,2019-03-06T16:45:00Z,30.4162,-87.8228,0.0,15.5,11111222 
NERRS,ioos:station:NOAA.NERRS:wkbfrwq:1,2019-03-06T17:45:00Z,30.4162,-87.8228,0.0,15.7,11111222 
NERRS,ioos:station:NOAA.NERRS:wkbfrwq:1,2019-03-06T18:45:00Z,30.4162,-87.8228,0.0,15.9,11111222 
NERRS,ioos:station:NOAA.NERRS:wkbfrwq:1,2019-03-06T19:45:00Z,30.4162,-87.8228,0.0,15.5,11111222 
NERRS,ioos:station:NOAA.NERRS:wkbfrwq:1,2019-03-06T20:45:00Z,30.4162,-87.8228,0.0,17.1,11111222 
NERRS,ioos:station:NOAA.NERRS:wkbfrwq:1,2019-03-06T21:45:00Z,30.4162,-87.8228,0.0,16.8,11111222 
NERRS,ioos:station:NOAA.NERRS:wkbfrwq:1,2019-03-06T22:45:00Z,30.4162,-87.8228,0.0,15.5,11111222 
NERRS,ioos:station:NOAA.NERRS:wkbfrwq:1,2019-03-06T23:45:00Z,30.4162,-87.8228,0.0,16.2,11111222 
NERRS,ioos:station:NOAA.NERRS:wkbfrwq:1,2019-03-07T00:45:00Z,30.4162,-87.8228,0.0,16.4,11111222 
NERRS,ioos:station:NOAA.NERRS:wkbfrwq:1,2019-03-07T01:45:00Z,30.4162,-87.8228,0.0,16.6,11111222 
NERRS,ioos:station:NOAA.NERRS:wkbfrwq:1,2019-03-07T02:45:00Z,30.4162,-87.8228,0.0,16.6,11111222 
NERRS,ioos:station:NOAA.NERRS:wkbfrwq:1,2019-03-07T03:45:00Z,30.4162,-87.8228,0.0,16.6,11111222 
NERRS,ioos:station:NOAA.NERRS:wkbfrwq:1,2019-03-07T05:45:00Z,30.4162,-87.8228,0.0,16.2,11111222 
NERRS,ioos:station:NOAA.NERRS:wkbfrwq:1,2019-03-07T06:45:00Z,30.4162,-87.8228,0.0,16.2,11111222 
NERRS,ioos:station:NOAA.NERRS:wkbfrwq:1,2019-03-07T07:45:00Z,30.4162,-87.8228,0.0,16.2,11111222 
NERRS,ioos:station:NOAA.NERRS:wkbfrwq:1,2019-03-07T08:45:00Z,30.4162,-87.8228,0.0,16.3,11111222 
NERRS,ioos:station:NOAA.NERRS:wkbfrwq:1,2019-03-07T09:45:00Z,30.4162,-87.8228,0.0,15.9,11111222 
NERRS,ioos:station:NOAA.NERRS:wkbfrwq:1,2019-03-07T10:45:00Z,30.4162,-87.8228,0.0,15.6,11111222 
NERRS,ioos:station:NOAA.NERRS:wkbfrwq:1,2019-03-07T11:45:00Z,30.4162,-87.8228,0.0,15.4,11111222 
NERRS,ioos:station:NOAA.NERRS:wkbfrwq:1,2019-03-07T12:45:00Z,30.4162,-87.8228,0.0,15.3,11111222 
NERRS,ioos:station:NOAA.NERRS:wkbfrwq:1,2019-03-07T13:45:00Z,30.4162,-87.8228,0.0,15.1,11111222 
NERRS,ioos:station:NOAA.NERRS:wkbfrwq:1,2019-03-07T14:45:00Z,30.4162,-87.8228,0.0,15.6,11111222 
NERRS,ioos:station:NOAA.NERRS:wkbfrwq:1,2019-03-07T15:45:00Z,30.4162,-87.8228,0.0,15.4,11111222 
NERRS,ioos:station:NOAA.NERRS:wkbfrwq:1,2019-03-07T16:45:00Z,30.4162,-87.8228,0.0,15.1,11111222 
NERRS,ioos:station:NOAA.NERRS:wkbfrwq:1,2019-03-07T17:45:00Z,30.4162,-87.8228,0.0,15.0,11111222 
NERRS,ioos:station:NOAA.NERRS:wkbfrwq:1,2019-03-07T18:45:00Z,30.4162,-87.8228,0.0,15.0,11111222 
NERRS,ioos:station:NOAA.NERRS:wkbfrwq:1,2019-03-07T19:45:00Z,30.4162,-87.8228,0.0,15.2,11111222 
NERRS,ioos:station:NOAA.NERRS:wkbfrwq:1,2019-03-07T20:45:00Z,30.4162,-87.8228,0.0,15.2,11111222 
NERRS,ioos:station:NOAA.NERRS:wkbfrwq:1,2019-03-07T21:45:00Z,30.4162,-87.8228,0.0,15.1,11111222 
NERRS,ioos:station:NOAA.NERRS:wkbfrwq:1,2019-03-07T22:45:00Z,30.4162,-87.8228,0.0,14.8,11111222 
NERRS,ioos:station:NOAA.NERRS:wkbfrwq:1,2019-03-07T23:45:00Z,30.4162,-87.8228,0.0,15.0,11111222 
NERRS,ioos:station:NOAA.NERRS:wkbfrwq:1,2019-03-08T00:45:00Z,30.4162,-87.8228,0.0,15.3,11111222 
NERRS,ioos:station:NOAA.NERRS:wkbfrwq:1,2019-03-08T01:45:00Z,30.4162,-87.8228,0.0,15.1,11111222 
NERRS,ioos:station:NOAA.NERRS:wkbfrwq:1,2019-03-08T02:45:00Z,30.4162,-87.8228,0.0,15.8,11111222 
NERRS,ioos:station:NOAA.NERRS:wkbfrwq:1,2019-03-08T03:45:00Z,30.4162,-87.8228,0.0,16.6,11111222 
NERRS,ioos:station:NOAA.NERRS:wkbfrwq:1,2019-03-08T04:45:00Z,30.4162,-87.8228,0.0,16.4,11111222 
NERRS,ioos:station:NOAA.NERRS:wkbfrwq:1,2019-03-08T05:45:00Z,30.4162,-87.8228,0.0,16.3,11111222 
NERRS,ioos:station:NOAA.NERRS:wkbfrwq:1,2019-03-08T06:45:00Z,30.4162,-87.8228,0.0,16.5,11111222 
NERRS,ioos:station:NOAA.NERRS:wkbfrwq:1,2019-03-08T07:45:00Z,30.4162,-87.8228,0.0,16.7,11111222 
NERRS,ioos:station:NOAA.NERRS:wkbfrwq:1,2019-03-08T08:45:00Z,30.4162,-87.8228,0.0,16.6,11111222 
NERRS,ioos:station:NOAA.NERRS:wkbfrwq:1,2019-03-08T09:45:00Z,30.4162,-87.8228,0.0,16.3,11111222 
NERRS,ioos:station:NOAA.NERRS:wkbfrwq:1,2019-03-08T10:45:00Z,30.4162,-87.8228,0.0,16.2,11111222 
NERRS,ioos:station:NOAA.NERRS:wkbfrwq:1,2019-03-08T11:45:00Z,30.4162,-87.8228,0.0,16.2,11111222 
NERRS,ioos:station:NOAA.NERRS:wkbfrwq:1,2019-03-08T12:45:00Z,30.4162,-87.8228,0.0,16.2,11111222 
NERRS,ioos:station:NOAA.NERRS:wkbfrwq:1,2019-03-08T13:45:00Z,30.4162,-87.8228,0.0,16.2,11111222 
NERRS,ioos:station:NOAA.NERRS:wkbfrwq:1,2019-03-08T15:45:00Z,30.4162,-87.8228,0.0,16.3,11111222 
NERRS,ioos:station:NOAA.NERRS:wkbfrwq:1,2019-03-08T16:45:00Z,30.4162,-87.8228,0.0,16.6,11111222 
NERRS,ioos:station:NOAA.NERRS:wkbfrwq:1,2019-03-08T17:45:00Z,30.4162,-87.8228,0.0,16.5,11111222 
NERRS,ioos:station:NOAA.NERRS:wkbfrwq:1,2019-03-08T18:45:00Z,30.4162,-87.8228,0.0,16.3,11111222 
NERRS,ioos:station:NOAA.NERRS:wkbfrwq:1,2019-03-08T19:45:00Z,30.4162,-87.8228,0.0,17.0,11111222 
NERRS,ioos:station:NOAA.NERRS:wkbfrwq:1,2019-03-08T20:45:00Z,30.4162,-87.8228,0.0,16.0,11111222 
NERRS,ioos:station:NOAA.NERRS:wkbfrwq:1,2019-03-08T21:45:00Z,30.4162,-87.8228,0.0,16.3,11111222 
NERRS,ioos:station:NOAA.NERRS:wkbfrwq:1,2019-03-08T22:45:00Z,30.4162,-87.8228,0.0,16.8,11111222 
NERRS,ioos:station:NOAA.NERRS:wkbfrwq:1,2019-03-08T23:45:00Z,30.4162,-87.8228,0.0,16.5,11111222 
NERRS,ioos:station:NOAA.NERRS:wkbfrwq:1,2019-03-09T00:45:00Z,30.4162,-87.8228,0.0,17.2,11111222 
NERRS,ioos:station:NOAA.NERRS:wkbfrwq:1,2019-03-09T01:45:00Z,30.4162,-87.8228,0.0,16.7,11111222 
NERRS,ioos:station:NOAA.NERRS:wkbfrwq:1,2019-03-09T02:45:00Z,30.4162,-87.8228,0.0,16.6,11111222 
NERRS,ioos:station:NOAA.NERRS:wkbfrwq:1,2019-03-09T03:45:00Z,30.4162,-87.8228,0.0,17.0,11111222 
NERRS,ioos:station:NOAA.NERRS:wkbfrwq:1,2019-03-09T04:45:00Z,30.4162,-87.8228,0.0,16.7,11111222 
NERRS,ioos:station:NOAA.NERRS:wkbfrwq:1,2019-03-09T05:45:00Z,30.4162,-87.8228,0.0,16.7,11111222 
NERRS,ioos:station:NOAA.NERRS:wkbfrwq:1,2019-03-09T06:45:00Z,30.4162,-87.8228,0.0,17.6,11111222 
NERRS,ioos:station:NOAA.NERRS:wkbfrwq:1,2019-03-09T07:45:00Z,30.4162,-87.8228,0.0,17.7,11111222 
NERRS,ioos:station:NOAA.NERRS:wkbfrwq:1,2019-03-09T08:45:00Z,30.4162,-87.8228,0.0,17.0,11111222 
NERRS,ioos:station:NOAA.NERRS:wkbfrwq:1,2019-03-09T09:45:00Z,30.4162,-87.8228,0.0,16.6,11111222 
NERRS,ioos:station:NOAA.NERRS:wkbfrwq:1,2019-03-09T10:45:00Z,30.4162,-87.8228,0.0,17.1,11111222 
NERRS,ioos:station:NOAA.NERRS:wkbfrwq:1,2019-03-09T11:45:00Z,30.4162,-87.8228,0.0,16.9,11111222 
NERRS,ioos:station:NOAA.NERRS:wkbfrwq:1,2019-03-09T12:45:00Z,30.4162,-87.8228,0.0,16.7,11111222 
NERRS,ioos:station:NOAA.NERRS:wkbfrwq:1,2019-03-09T13:45:00Z,30.4162,-87.8228,0.0,16.2,11111222 
NERRS,ioos:station:NOAA.NERRS:wkbfrwq:1,2019-03-09T14:45:00Z,30.4162,-87.8228,0.0,16.4,11111222 
NERRS,ioos:station:NOAA.NERRS:wkbfrwq:1,2019-03-09T15:45:00Z,30.4162,-87.8228,0.0,16.5,11111222 
NERRS,ioos:station:NOAA.NERRS:wkbfrwq:1,2019-03-09T16:45:00Z,30.4162,-87.8228,0.0,17.1,11111222 
NERRS,ioos:station:NOAA.NERRS:wkbfrwq:1,2019-03-09T17:45:00Z,30.4162,-87.8228,0.0,16.8,11111222 
NERRS,ioos:station:NOAA.NERRS:wkbfrwq:1,2019-03-09T18:45:00Z,30.4162,-87.8228,0.0,16.7,11111222 
NERRS,ioos:station:NOAA.NERRS:wkbfrwq:1,2019-03-09T19:45:00Z,30.4162,-87.8228,0.0,16.7,11111222 
NERRS,ioos:station:NOAA.NERRS:wkbfrwq:1,2019-03-09T20:45:00Z,30.4162,-87.8228,0.0,16.7,11111222 
NERRS,ioos:station:NOAA.NERRS:wkbfrwq:1,2019-03-09T21:45:00Z,30.4162,-87.8228,0.0,17.3,11111222 
NERRS,ioos:station:NOAA.NERRS:wkbfrwq:1,2019-03-09T22:45:00Z,30.4162,-87.8228,0.0,17.7,11111222 
NERRS,ioos:station:NOAA.NERRS:wkbfrwq:1,2019-03-09T23:45:00Z,30.4162,-87.8228,0.0,17.1,11111222 
NERRS,ioos:station:NOAA.NERRS:wkbfrwq:1,2019-03-10T00:45:00Z,30.4162,-87.8228,0.0,17.5,11111222 
NERRS,ioos:station:NOAA.NERRS:wkbfrwq:1,2019-03-10T01:45:00Z,30.4162,-87.8228,0.0,17.8,11111222 
NERRS,ioos:station:NOAA.NERRS:wkbfrwq:1,2019-03-10T02:45:00Z,30.4162,-87.8228,0.0,17.6,11111222 
NERRS,ioos:station:NOAA.NERRS:wkbfrwq:1,2019-03-10T03:45:00Z,30.4162,-87.8228,0.0,17.6,11111222 
NERRS,ioos:station:NOAA.NERRS:wkbfrwq:1,2019-03-10T04:45:00Z,30.4162,-87.8228,0.0,17.6,11111222 
NERRS,ioos:station:NOAA.NERRS:wkbfrwq:1,2019-03-10T05:45:00Z,30.4162,-87.8228,0.0,17.6,11111222 
NERRS,ioos:station:NOAA.NERRS:wkbfrwq:1,2019-03-10T06:45:00Z,30.4162,-87.8228,0.0,17.5,11111222 
NERRS,ioos:station:NOAA.NERRS:wkbfrwq:1,2019-03-10T07:45:00Z,30.4162,-87.8228,0.0,17.5,11111222 
NERRS,ioos:station:NOAA.NERRS:wkbfrwq:1,2019-03-10T08:45:00Z,30.4162,-87.8228,0.0,17.8,11111222 
NERRS,ioos:station:NOAA.NERRS:wkbfrwq:1,2019-03-10T09:45:00Z,30.4162,-87.8228,0.0,17.7,11111222 
NERRS,ioos:station:NOAA.NERRS:wkbfrwq:1,2019-03-10T10:45:00Z,30.4162,-87.8228,0.0,17.7,11111222 
NERRS,ioos:station:NOAA.NERRS:wkbfrwq:1,2019-03-10T11:45:00Z,30.4162,-87.8228,0.0,17.7,11111222 
NERRS,ioos:station:NOAA.NERRS:wkbfrwq:1,2019-03-10T12:45:00Z,30.4162,-87.8228,0.0,17.9,11111222 
NERRS,ioos:station:NOAA.NERRS:wkbfrwq:1,2019-03-10T13:45:00Z,30.4162,-87.8228,0.0,17.8,11111222 
NERRS,ioos:station:NOAA.NERRS:wkbfrwq:1,2019-03-10T14:45:00Z,30.4162,-87.8228,0.0,18.2,11111222 
NERRS,ioos:station:NOAA.NERRS:wkbfrwq:1,2019-03-10T15:45:00Z,30.4162,-87.8228,0.0,18.1,11111222 
NERRS,ioos:station:NOAA.NERRS:wkbfrwq:1,2019-03-10T16:45:00Z,30.4162,-87.8228,0.0,18.3,11111222 
NERRS,ioos:station:NOAA.NERRS:wkbfrwq:1,2019-03-10T17:45:00Z,30.4162,-87.8228,0.0,18.2,11111222 
NERRS,ioos:station:NOAA.NERRS:wkbfrwq:1,2019-03-10T18:45:00Z,30.4162,-87.8228,0.0,18.1,11111222 
NERRS,ioos:station:NOAA.NERRS:wkbfrwq:1,2019-03-10T19:45:00Z,30.4162,-87.8228,0.0,18.2,11111222 
NERRS,ioos:station:NOAA.NERRS:wkbfrwq:1,2019-03-10T20:45:00Z,30.4162,-87.8228,0.0,18.0,11111222 
NERRS,ioos:station:NOAA.NERRS:wkbfrwq:1,2019-03-10T21:45:00Z,30.4162,-87.8228,0.0,17.9,11111222 
NERRS,ioos:station:NOAA.NERRS:wkbfrwq:1,2019-03-11T04:45:00Z,30.4162,-87.8228,0.0,17.9,11111222 
NERRS,ioos:station:NOAA.NERRS:wkbfrwq:1,2019-03-11T05:45:00Z,30.4162,-87.8228,0.0,18.6,11111222 
NERRS,ioos:station:NOAA.NERRS:wkbfrwq:1,2019-03-11T06:45:00Z,30.4162,-87.8228,0.0,18.6,11111222 
NERRS,ioos:station:NOAA.NERRS:wkbfrwq:1,2019-03-11T08:45:00Z,30.4162,-87.8228,0.0,18.3,11111222 
NERRS,ioos:station:NOAA.NERRS:wkbfrwq:1,2019-03-11T09:45:00Z,30.4162,-87.8228,0.0,18.7,11111222 
NERRS,ioos:station:NOAA.NERRS:wkbfrwq:1,2019-03-11T10:45:00Z,30.4162,-87.8228,0.0,18.3,11111222 
NERRS,ioos:station:NOAA.NERRS:wkbfrwq:1,2019-03-11T11:45:00Z,30.4162,-87.8228,0.0,19.1,11111222 
NERRS,ioos:station:NOAA.NERRS:wkbfrwq:1,2019-03-11T12:45:00Z,30.4162,-87.8228,0.0,19.0,11111222 
NERRS,ioos:station:NOAA.NERRS:wkbfrwq:1,2019-03-11T13:45:00Z,30.4162,-87.8228,0.0,18.9,11111222 
NERRS,ioos:station:NOAA.NERRS:wkbfrwq:1,2019-03-11T14:45:00Z,30.4162,-87.8228,0.0,19.5,11111222 
NERRS,ioos:station:NOAA.NERRS:wkbfrwq:1,2019-03-11T15:45:00Z,30.4162,-87.8228,0.0,19.3,11111222 
NERRS,ioos:station:NOAA.NERRS:wkbfrwq:1,2019-03-11T16:45:00Z,30.4162,-87.8228,0.0,19.2,11111222 
NERRS,ioos:station:NOAA.NERRS:wkbfrwq:1,2019-03-11T17:45:00Z,30.4162,-87.8228,0.0,19.2,11111222 
NERRS,ioos:station:NOAA.NERRS:wkbfrwq:1,2019-03-11T18:45:00Z,30.4162,-87.8228,0.0,19.5,11111222 
NERRS,ioos:station:NOAA.NERRS:wkbfrwq:1,2019-03-11T19:45:00Z,30.4162,-87.8228,0.0,19.3,11111222 
NERRS,ioos:station:NOAA.NERRS:wkbfrwq:1,2019-03-11T20:45:00Z,30.4162,-87.8228,0.0,19.4,11111222 
NERRS,ioos:station:NOAA.NERRS:wkbfrwq:1,2019-03-11T21:45:00Z,30.4162,-87.8228,0.0,19.3,11111222 
NERRS,ioos:station:NOAA.NERRS:wkbfrwq:1,2019-03-11T22:45:00Z,30.4162,-87.8228,0.0,19.9,11111222 
NERRS,ioos:station:NOAA.NERRS:wkbfrwq:1,2019-03-11T23:45:00Z,30.4162,-87.8228,0.0,18.6,11111222 
NERRS,ioos:station:NOAA.NERRS:wkbfrwq:1,2019-03-12T00:45:00Z,30.4162,-87.8228,0.0,19.3,11111222 
NERRS,ioos:station:NOAA.NERRS:wkbfrwq:1,2019-03-12T02:45:00Z,30.4162,-87.8228,0.0,19.1,11111222 
NERRS,ioos:station:NOAA.NERRS:wkbfrwq:1,2019-03-12T03:45:00Z,30.4162,-87.8228,0.0,18.9,11111222 
NERRS,ioos:station:NOAA.NERRS:wkbfrwq:1,2019-03-12T04:45:00Z,30.4162,-87.8228,0.0,19.0,11111222 
NERRS,ioos:station:NOAA.NERRS:wkbfrwq:1,2019-03-12T05:45:00Z,30.4162,-87.8228,0.0,19.1,11111222 
NERRS,ioos:station:NOAA.NERRS:wkbfrwq:1,2019-03-12T06:45:00Z,30.4162,-87.8228,0.0,19.1,11111222 
NERRS,ioos:station:NOAA.NERRS:wkbfrwq:1,2019-03-12T07:45:00Z,30.4162,-87.8228,0.0,19.0,11111222 